Temp
11 10 10 10 11 12 12 13 13 14 14 14 12 12 12 12 13 14 14 14 15 14 14 14 14 15 15 16 16 17 17 17 17 17 17 17 17 17 18 18 18 18 18 18 17 18 18 18 18 18 17 17 17 16 16 16 16 16 16 16 17 17 17 17 17 17 17 17 17 17 17 17 17 18 18 18 18 18 18 18 19 19 19 19 19 19
11 9 10 11 12 14 14 14 14 14 14 13 12 11 11 12 12 14 14 14 14 13 13 14 14 13 14 15 15 16 16 16 16 16 16 16 16 17 17 17 17 17 18 18 17 17 17 18 18 17 17 16 16 16 16 16 16 16 16 16 16 16 16 17 17 17 17 17 17 17 17 17 17 17 18 18 18 18 18 18 18 19 19 19 19 19
10 9 10 13 14 14 14 14 14 13 13 12 11 11 11 11 12 13 14 15 14 12 12 13 12 12 13 14 14 15 15 15 16 16 16 16 16 16 16 17 17 17 17 17 17 17 17 17 16 15 15 14 14 14 14 14 14 15 15 15 15 16 16 16 16 17 17 17 17 17 17 17 17 17 17 18 18 18 18 18 18 18 19 19 19 19
9 10 12 13 13 13 13 13 13 12 12 11 11 11 10 12 12 12 13 13 13 12 12 12 11 11 12 12 13 14 14 15 15 15 16 16 16 16 16 16 16 16 16 16 17 17 16 14 13 12 12 13 13 12 12 13 13 13 14 14 14 14 15 15 16 16 16 16 17 17 17 17 17 18 18 18 18 18 18 18 18 18 18 18 18 19
11 12 13 12 12 12 12 12 12 11 11 11 11 11 11 12 12 12 12 12 12 12 12 11 10 10 11 11 11 12 14 14 14 15 15 15 15 15 15 16 15 16 15 15 16 15 13 12 11 11 11 12 11 11 11 11 11 12 12 13 13 13 14 14 15 15 15 16 16 16 16 17 17 17 17 17 17 17 18 18 18 18 18 18 18 18
11 12 12 11 11 12 11 11 12 11 10 11 11 11 11 12 12 11 11 10 10 10 11 11 8 9 12 11 10 11 12 13 14 14 14 14 15 15 15 15 15 15 14 14 13 12 11 11 11 10 11 11 10 10 10 9 10 10 10 11 11 12 13 13 14 14 14 15 15 15 15 16 16 16 16 17 17 17 17 17 17 17 18 18 18 18
11 12 11 11 11 11 10 10 11 12 10 10 12 12 12 12 12 11 10 10 8 9 11 11 9 9 11 12 12 11 12 13 13 14 14 14 15 15 15 14 14 13 12 12 11 11 10 10 10 10 10 10 10 9 9 9 9 9 9 9 10 10 11 11 12 13 13 14 14 14 15 15 15 15 16 16 16 17 17 17 17 17 17 17 17 17
11 11 10 10 10 10 10 10 11 12 10 10 11 12 12 12 11 10 10 9 9 10 11 11 10 9 9 11 13 12 12 12 13 13 14 15 15 15 13 12 12 11 11 11 10 10 10 10 10 10 10 9 9 9 8 8 8 8 8 8 9 9 9 10 11 11 12 12 13 13 14 14 15 15 15 16 16 16 17 17 17 17 17 17 17 17
10 10 10 9 9 9 10 11 12 12 11 10 11 11 11 11 10 10 10 9 9 9 8 9 11 9 8 11 12 12 12 11 12 13 13 14 15 14 12 11 11 11 11 11 10 10 10 10 10 10 10 9 9 9 8 8 8 8 8 8 8 8 9 9 9 10 11 11 12 12 13 13 14 14 14 15 15 16 16 16 17 17 17 17 17 17
9 9 9 9 9 10 11 12 13 12 11 11 11 10 10 10 9 9 9 9 9 8 6 9 10 9 8 11 11 11 11 11 12 12 12 14 13 12 11 11 10 10 10 10 10 10 10 10 10 10 10 9 9 9 8 8 8 8 8 8 8 8 8 8 8 9 9 10 10 11 11 12 13 13 14 14 14 15 15 15 16 16 17 17 17 17
8 8 8 8 9 10 11 12 12 12 11 10 9 9 9 9 9 9 8 9 8 6 6 8 10 9 8 10 11 10 11 11 12 12 12 13 11 11 11 10 10 10 10 10 10 10 9 10 10 10 9 9 9 9 8 8 8 8 8 8 8 8 8 8 8 8 8 9 9 10 10 11 11 12 13 13 13 14 14 15 15 16 16 16 16 16
7 7 7 8 8 9 10 10 11 11 11 10 9 9 8 8 8 7 8 8 6 5 8 9 9 9 8 9 11 12 12 12 12 13 12 11 10 10 10 10 10 10 9 10 10 9 9 9 9 9 9 9 9 8 8 8 8 8 8 8 8 8 8 8 8 8 8 8 8 9 9 10 10 11 12 12 13 13 13 14 14 15 15 16 16 16
6 6 7 7 8 9 8 8 9 9 9 9 8 8 7 6 7 6 6 7 5 6 9 9 9 8 7 10 12 13 14 14 14 14 12 10 10 9 9 9 9 9 9 9 9 9 9 8 8 8 8 8 8 8 8 8 8 8 8 8 8 8 8 8 8 8 8 8 8 8 8 9 9 10 11 11 12 12 13 13 14 14 15 15 15 16
7 7 6 6 7 8 8 7 7 7 7 7 7 7 6 6 7 6 6 7 6 7 9 9 9 7 8 10 11 12 14 14 14 13 11 10 10 9 9 9 9 9 9 9 9 9 9 8 8 8 8 8 8 8 8 8 8 7 7 7 7 7 8 8 8 8 7 7 8 8 8 8 9 9 10 10 11 12 12 12 13 13 14 14 15 15
7 7 7 6 7 7 7 8 9 8 7 7 8 8 7 7 8 7 8 8 8 9 8 8 8 7 8 11 11 12 13 13 13 12 11 10 9 9 9 9 8 8 8 8 8 8 8 8 8 8 8 8 8 8 7 7 7 7 7 7 7 7 7 7 7 7 7 7 7 7 7 8 8 8 9 10 10 11 11 12 12 13 13 14 14 15
7 7 8 7 7 8 7 8 10 10 8 7 8 8 7 8 9 9 9 8 9 8 7 7 8 8 10 11 11 12 12 11 11 10 10 9 9 9 8 8 8 8 8 8 8 8 8 8 8 8 8 8 8 8 7 7 7 7 7 7 7 7 7 7 7 7 7 7 7 7 7 7 8 8 8 9 9 10 10 11 12 12 12 13 13 14
7 7 8 7 7 7 7 8 10 9 8 8 7 7 7 9 9 8 8 8 9 7 7 9 9 9 11 11 11 11 10 10 10 9 9 9 8 8 8 8 8 8 8 8 8 8 8 7 8 8 8 8 8 7 7 7 7 7 7 7 7 7 7 7 7 7 7 7 7 7 7 7 7 7 8 8 9 9 10 10 11 11 12 12 13 13
8 7 7 6 6 7 7 8 8 9 9 8 7 7 8 8 8 7 6 7 7 6 7 10 9 9 10 10 10 10 9 9 9 9 9 9 8 8 8 7 7 8 8 8 8 8 7 7 8 8 8 8 8 7 7 7 7 7 7 7 7 6 7 6 6 6 6 6 6 6 6 6 7 7 7 7 8 8 9 9 10 11 11 12 12 12
8 6 6 6 6 6 7 6 6 8 9 8 7 8 8 6 6 6 6 6 6 6 7 9 9 9 10 10 10 9 9 9 9 9 9 8 8 7 7 7 7 7 8 7 8 8 7 7 7 8 8 8 8 7 7 7 7 7 6 6 6 6 6 6 6 6 6 6 6 6 6 6 6 6 7 7 7 8 8 9 9 10 10 11 11 12
8 6 5 5 6 6 5 5 6 6 7 7 6 7 7 7 7 7 6 6 6 6 7 8 8 9 10 11 10 8 9 9 9 9 8 8 7 7 7 7 7 7 7 7 7 7 7 7 7 8 7 7 8 7 7 7 7 6 6 6 6 6 6 6 5 5 5 5 5 5 5 6 6 6 6 7 7 8 8 8 9 9 10 10 11 11
7 6 5 5 5 5 4 5 6 6 6 6 5 5 6 7 7 7 7 7 7 6 6 7 7 8 10 10 10 9 10 9 9 9 8 8 7 7 7 7 7 7 7 7 7 7 7 7 7 8 7 7 7 7 7 7 6 6 6 6 6 6 5 5 5 5 4 4 4 5 5 5 5 6 6 6 7 7 7 8 8 9 9 10 10 11
5 5 5 4 3 4 5 6 7 7 7 6 5 5 6 6 6 6 5 7 7 6 7 6 6 8 10 10 10 10 9 9 9 8 8 7 7 7 7 7 7 7 7 7 7 7 7 7 7 7 7 7 7 7 7 6 6 6 6 6 5 5 5 4 4 4 4 4 4 4 4 5 5 5 5 6 6 6 7 7 7 8 8 9 10 10
5 5 4 4 4 4 6 6 6 6 7 7 6 6 6 6 6 5 4 6 6 6 7 7 6 7 9 9 10 10 9 9 9 8 7 7 7 7 7 7 7 7 7 6 7 7 7 7 7 7 7 7 7 7 6 6 6 5 5 5 5 4 4 4 3 3 3 3 3 3 4 4 4 5 5 5 5 6 6 6 6 7 7 8 9 10
5 4 3 4 5 6 6 5 5 5 6 6 6 6 6 6 6 6 6 6 6 5 7 6 5 7 8 9 10 10 9 8 8 7 7 7 7 7 7 6 6 6 6 6 6 7 6 6 6 6 6 6 6 6 6 5 5 5 5 5 4 4 3 3 3 2 2 2 2 3 3 3 4 4 4 4 4 4 5 5 6 6 6 7 8 8
5 4 3 2 2 4 4 4 3 4 4 4 5 6 6 6 6 6 6 6 5 5 6 5 4 7 8 8 9 9 8 8 7 7 7 7 7 7 6 6 6 6 6 6 6 6 6 6 6 6 6 6 6 6 5 5 5 4 4 4 4 3 3 2 2 2 2 2 2 2 2 3 3 3 3 3 3 3 4 4 5 5 6 6 7 7
4 3 3 2 1 2 2 3 3 4 3 4 4 5 5 5 5 5 5 4 3 5 6 4 4 7 8 7 8 8 7 7 7 7 7 7 7 7 7 6 6 6 6 6 7 6 6 6 5 5 6 6 6 5 5 4 4 4 4 4 3 3 2 2 1 1 1 1 1 2 2 2 2 2 2 2 2 2 3 3 4 5 5 5 6 6
3 3 3 2 2 2 3 4 5 5 4 3 3 4 4 4 4 4 4 3 4 5 5 5 5 6 6 7 7 7 7 7 7 7 7 7 7 8 8 7 6 6 6 7 7 6 6 6 6 5 5 6 5 5 5 4 4 4 3 3 3 2 2 1 1 1 1 1 1 1 1 2 1 1 1 1 1 1 2 2 3 4 4 5 5 5
1 1 2 2 2 2 3 3 4 3 3 3 3 3 3 4 4 4 3 3 4 4 3 5 6 5 5 6 7 7 7 7 7 7 7 8 8 8 8 8 7 6 7 7 6 6 6 6 6 5 5 5 5 4 4 4 4 3 3 2 2 1 1 1 0 0 0 0 0 0 0 1 0 1 1 0 0 0 1 1 2 2 3 4 4 4
-0 -0 1 1 1 2 2 2 2 2 2 2 2 2 2 3 3 3 2 3 4 2 2 4 5 4 5 6 6 7 7 7 7 8 8 8 8 8 8 7 6 6 7 7 7 7 6 6 6 5 5 5 5 4 4 4 3 3 2 2 1 1 1 0 -0 -0 -1 -1 -1 -1 -0 -0 -0 -0 -0 -0 -0 -0 -1 -0 0 1 1 2 3 4
-1 -1 0 0 -0 0 1 0 1 1 1 1 1 1 2 2 2 2 2 3 3 2 3 4 4 4 5 6 6 7 7 7 7 8 8 8 8 8 8 7 6 6 7 7 7 7 7 6 6 5 4 5 5 4 4 3 3 2 1 1 1 0 0 -0 -1 -1 -1 -1 -1 -1 -1 -1 -1 -1 -1 -1 -1 -1 -1 -1 -1 -0 0 1 2 3
-1 -1 1 0 -1 -1 0 0 0 0 0 -0 0 1 1 1 1 2 2 2 2 2 2 3 2 3 5 6 6 6 7 7 7 7 7 7 7 8 7 7 7 7 7 7 7 7 7 6 6 4 3 4 4 4 3 2 2 1 1 0 0 0 -0 -1 -1 -1 -1 -2 -2 -2 -2 -2 -2 -2 -2 -2 -1 -1 -2 -2 -2 -1 -0 1 1 2
-1 -1 0 -0 -1 -1 0 -0 -0 0 0 -0 -0 0 0 1 1 1 2 2 2 2 2 2 2 3 5 6 6 6 6 6 6 6 6 7 7 7 7 7 7 7 7 7 6 6 6 6 6 5 3 4 4 3 2 2 1 1 0 0 -0 -0 -1 -1 -1 -1 -2 -2 -2 -2 -2 -2 -2 -2 -2 -2 -2 -2 -2 -2 -2 -2 -1 -0 0 1
-1 -1 -1 -1 -2 -1 -0 -0 -0 -0 -1 -2 -0 0 1 1 1 1 2 2 2 2 2 1 2 3 5 5 5 5 5 5 6 6 6 6 7 7 7 7 7 7 7 7 6 6 6 6 4 4 4 4 3 3 2 1 1 0 -0 -0 -1 -1 -1 -1 -1 -2 -2 -2 -2 -2 -3 -3 -3 -3 -3 -3 -3 -3 -2 -3 -3 -2 -2 -1 -1 -0
-1 -1 -1 -1 -2 -2 -1 -0 -1 -2 -3 -1 1 2 2 2 1 1 1 2 3 3 2 2 3 4 4 4 4 4 5 5 6 6 6 7 6 7 7 7 7 7 7 7 6 6 6 5 4 5 5 3 2 2 1 0 -0 -0 -1 -1 -1 -1 -1 -1 -2 -2 -2 -3 -3 -3 -3 -3 -4 -4 -3 -3 -4 -3 -3 -3 -3 -3 -2 -2 -2 -1
-2 -2 -2 -1 -2 -2 -1 -1 -3 -3 -2 -0 2 2 2 2 2 2 2 2 3 3 3 3 3 4 4 4 4 5 5 5 5 6 6 6 6 6 6 7 7 7 7 6 6 7 6 4 3 4 4 2 2 1 0 -0 -1 -1 -1 -1 -1 -1 -1 -2 -2 -3 -3 -3 -4 -4 -4 -4 -4 -4 -4 -4 -4 -4 -4 -4 -3 -3 -3 -3 -2 -2
-2 -2 -2 -2 -2 -2 -2 -3 -3 -3 -1 -0 1 2 2 2 2 1 1 2 3 3 3 3 3 4 4 4 5 5 5 5 5 5 6 6 6 6 6 6 7 6 7 6 6 6 5 4 4 3 2 1 1 -0 -1 -1 -2 -2 -2 -2 -2 -2 -2 -2 -3 -3 -4 -5 -5 -5 -5 -5 -5 -5 -5 -4 -5 -5 -4 -4 -4 -4 -3 -3 -3 -2
-1 -2 -2 -2 -2 -2 -3 -3 -2 -2 -2 -1 -0 1 2 2 2 1 0 1 3 4 3 3 3 4 4 4 5 5 5 5 4 5 6 6 6 7 6 6 7 6 6 6 6 6 6 5 4 2 1 -0 -1 -2 -2 -2 -3 -3 -3 -2 -2 -2 -3 -3 -4 -5 -5 -6 -6 -6 -6 -6 -6 -5 -5 -5 -5 -5 -5 -5 -5 -4 -4 -3 -3 -3
-1 -1 -2 -3 -2 -2 -3 -3 -3 -3 -3 -1 -0 1 2 2 3 3 1 1 2 3 2 2 2 1 1 1 2 3 4 4 3 4 6 6 6 7 6 6 6 5 5 5 5 5 4 3 1 0 -1 -1 -2 -3 -3 -3 -3 -3 -3 -3 -3 -3 -4 -5 -6 -6 -7 -7 -7 -7 -7 -7 -6 -6 -6 -6 -6 -6 -6 -5 -5 -5 -4 -4 -3 -3
-1 -1 -2 -3 -3 -2 -3 -4 -3 -4 -2 -0 1 2 2 2 3 2 -0 -1 -1 -2 -1 -1 -2 -2 -1 -2 -2 -0 1 2 3 4 6 6 6 6 6 6 5 5 5 5 5 2 0 -0 -1 -1 -2 -3 -4 -4 -4 -4 -3 -3 -4 -4 -4 -5 -6 -7 -7 -8 -8 -8 -8 -8 -8 -7 -7 -7 -7 -7 -7 -7 -6 -6 -5 -5 -5 -4 -4 -3
-3 -2 -2 -3 -3 -3 -3 -4 -3 -3 -1 0 1 2 3 3 3 1 -1 -3 -4 -5 -3 -3 -3 -3 -3 -3 -3 -2 -1 -1 -0 1 3 5 6 5 5 5 5 5 4 3 2 1 -1 -1 -2 -3 -4 -5 -5 -5 -5 -4 -4 -4 -5 -5 -6 -7 -8 -9 -9 -9 -9 -8 -8 -8 -8 -8 -8 -8 -8 -8 -8 -7 -7 -6 -6 -6 -5 -5 -4 -3
-4 -3 -3 -4 -4 -3 -3 -4 -3 -2 -1 1 2 2 2 2 1 -1 -3 -5 -7 -6 -5 -5 -5 -5 -5 -5 -5 -4 -4 -3 -3 -2 0 3 4 5 4 3 3 3 1 -0 -1 -1 -2 -3 -4 -5 -6 -6 -6 -6 -6 -5 -5 -6 -6 -7 -8 -9 -9 -10 -10 -10 -9 -8 -8 -9 -9 -9 -9 -9 -9 -9 -8 -8 -7 -7 -7 -6 -5 -5 -4 -3
-4 -4 -3 -3 -4 -3 -3 -4 -4 -3 -2 -2 -1 1 1 1 -1 -5 -7 -8 -9 -7 -7 -8 -7 -7 -8 -8 -7 -6 -6 -5 -5 -3 -0 1 2 4 4 1 -0 -0 -1 -1 -1 -2 -4 -5 -6 -6 -7 -7 -7 -7 -7 -7 -7 -8 -8 -9 -10 -10 -10 -10 -10 -10 -9 -9 -9 -9 -10 -9 -10 -10 -9 -9 -9 -8 -8 -8 -7 -6 -6 -5 -4 -3
-3 -4 -4 -3 -3 -4 -4 -4 -4 -3 -5 -7 -4 -2 -3 -5 -6 -10 -11 -9 -8 -9 -9 -10 -9 -9 -10 -10 -8 -8 -7 -7 -5 -4 -2 -1 1 2 2 0 -1 -2 -2 -2 -2 -3 -5 -6 -7 -7 -8 -8 -8 -8 -8 -8 -9 -10 -10 -11 -12 -11 -11 -10 -10 -9 -9 -9 -10 -10 -10 -10 -10 -10 -10 -10 -9 -9 -8 -8 -7 -7 -6 -5 -4 -4
-2 -3 -4 -3 -2 -3 -4 -5 -6 -7 -9 -10 -7 -6 -9 -11 -12 -13 -12 -10 -10 -11 -11 -11 -11 -11 -11 -11 -10 -9 -8 -7 -6 -6 -5 -2 0 0 -1 -1 -2 -3 -3 -3 -3 -4 -5 -7 -7 -8 -8 -9 -9 -9 -9 -10 -11 -12 -12 -13 -13 -12 -11 -10 -10 -9 -10 -10 -11 -11 -11 -10 -10 -11 -11 -10 -10 -9 -9 -8 -8 -7 -6 -6 -5 -4
-5 -6 -5 -3 -4 -5 -6 -7 -9 -11 -12 -12 -11 -12 -13 -14 -14 -14 -13 -12 -12 -12 -13 -12 -12 -12 -12 -12 -11 -10 -9 -9 -8 -7 -6 -3 -1 -2 -3 -3 -3 -4 -3 -3 -4 -5 -6 -7 -8 -8 -9 -10 -10 -11 -11 -11 -12 -13 -14 -14 -13 -12 -11 -10 -10 -11 -12 -13 -13 -12 -11 -11 -11 -11 -11 -11 -10 -10 -9 -9 -8 -8 -7 -7 -6 -5
-11 -12 -8 -5 -6 -8 -8 -10 -11 -12 -13 -13 -14 -15 -15 -15 -15 -15 -14 -14 -14 -14 -14 -14 -14 -14 -13 -12 -12 -11 -11 -11 -10 -7 -4 -3 -3 -4 -4 -4 -4 -4 -4 -4 -5 -6 -7 -8 -8 -9 -10 -10 -11 -12 -12 -12 -13 -14 -15 -15 -13 -12 -11 -10 -11 -13 -14 -14 -14 -13 -12 -12 -12 -12 -12 -12 -11 -11 -10 -9 -9 -8 -8 -7 -7 -6
-13 -14 -10 -7 -6 -7 -8 -12 -13 -13 -14 -15 -14 -15 -16 -16 -16 -16 -16 -15 -15 -15 -15 -15 -15 -15 -14 -13 -13 -13 -13 -12 -10 -7 -4 -4 -6 -6 -6 -6 -5 -5 -5 -5 -5 -6 -7 -8 -9 -9 -10 -11 -12 -13 -13 -13 -14 -15 -15 -14 -13 -12 -11 -11 -13 -14 -15 -15 -15 -14 -13 -13 -13 -13 -13 -12 -12 -11 -11 -10 -10 -9 -9 -8 -7 -7
-14 -14 -13 -11 -10 -10 -11 -14 -15 -14 -15 -16 -16 -16 -17 -17 -17 -17 -17 -17 -17 -17 -17 -16 -16 -16 -15 -15 -15 -15 -14 -13 -11 -9 -7 -7 -8 -8 -8 -8 -7 -7 -7 -7 -7 -8 -8 -9 -9 -10 -11 -12 -13 -14 -14 -15 -15 -15 -15 -14 -14 -13 -13 -14 -15 -16 -16 -16 -15 -15 -14 -14 -14 -14 -13 -13 -12 -12 -11 -11 -10 -10 -9 -9 -8 -7
-17 -16 -16 -14 -13 -12 -13 -15 -16 -14 -14 -16 -17 -17 -17 -18 -19 -18 -18 -18 -18 -18 -18 -17 -17 -17 -17 -17 -17 -16 -16 -15 -13 -11 -10 -10 -10 -10 -9 -9 -9 -10 -10 -10 -10 -10 -10 -11 -11 -12 -13 -14 -15 -15 -15 -16 -16 -16 -16 -15 -15 -14 -15 -16 -17 -17 -17 -16 -16 -16 -15 -15 -15 -14 -14 -13 -13 -12 -12 -11 -11 -10 -9 -8 -8 -8
-19 -19 -19 -16 -11 -12 -15 -18 -19 -16 -15 -16 -18 -18 -18 -19 -20 -19 -19 -20 -20 -19 -19 -18 -18 -18 -17 -18 -18 -18 -18 -17 -16 -13 -12 -12 -13 -12 -12 -12 -12 -12 -12 -12 -12 -12 -12 -13 -14 -14 -15 -16 -16 -17 -17 -17 -17 -18 -17 -16 -16 -16 -17 -19 -19 -19 -18 -17 -17 -17 -16 -16 -15 -15 -14 -14 -13 -13 -12 -12 -11 -11 -10 -9 -8 -7
-21 -22 -22 -19 -16 -17 -19 -21 -20 -19 -19 -18 -18 -18 -19 -20 -21 -21 -21 -21 -21 -20 -20 -19 -19 -19 -19 -19 -19 -19 -19 -19 -17 -15 -14 -14 -14 -14 -14 -15 -14 -14 -14 -14 -13 -13 -14 -15 -16 -16 -17 -17 -18 -18 -18 -18 -19 -19 -18 -17 -17 -18 -19 -20 -21 -20 -19 -19 -18 -17 -17 -16 -16 -15 -14 -14 -13 -13 -13 -12 -11 -11 -10 -10 -9 -8
Height
778 784 785 782 777 771 769 768 767 764 761 764 769 772 772 770 765 758 760 759 756 763 764 761 761 759 756 752 750 750 748 749 750 750 752 752 753 752 752 752 752 753 754 754 756 757 759 760 761 762 762 762 763 763 765 765 766 767 767 769 769 770 772 772 773 774 774 775 775 776 776 776 777 778 778 779 779 780 781 783 784 785 786 787 787 787
777 785 780 771 767 760 759 761 761 763 763 765 773 776 773 772 768 759 759 759 758 765 766 762 763 761 757 754 752 751 750 750 749 749 750 751 752 751 750 751 751 752 753 754 755 757 758 759 760 760 760 761 761 762 764 764 765 766 766 767 768 769 770 770 771 772 772 773 773 774 774 774 775 775 776 776 776 778 779 781 782 783 784 785 785 785
783 784 773 763 760 757 758 760 762 765 767 770 773 775 776 772 768 763 758 757 759 767 770 767 767 766 760 757 755 753 751 748 747 747 748 748 749 750 750 750 751 751 752 753 754 755 756 758 759 759 760 760 761 761 762 763 763 764 765 766 767 768 768 769 770 770 771 771 772 772 773 773 773 773 774 774 775 776 777 778 780 781 782 782 783 783
783 774 765 761 760 762 763 763 765 768 771 774 774 776 776 768 768 769 762 761 763 767 770 770 771 769 764 760 755 751 749 746 745 745 746 746 746 748 748 749 750 751 752 753 753 755 756 758 759 759 760 760 761 761 762 763 763 763 764 764 765 766 766 767 768 769 769 770 770 771 771 771 772 772 772 773 773 774 774 775 776 777 778 779 780 781
773 762 760 763 764 765 767 766 767 772 775 774 772 775 773 765 766 768 767 768 768 769 770 773 780 773 763 763 756 749 748 746 746 745 745 746 745 746 747 748 749 750 752 753 754 756 758 759 760 760 761 761 761 762 762 763 763 763 764 764 764 764 765 766 766 767 767 768 768 768 769 769 769 769 770 770 770 771 771 772 772 773 775 776 777 778
768 760 761 765 766 766 770 770 767 770 775 771 767 767 766 764 764 768 771 775 781 782 769 771 789 775 751 755 756 752 750 746 745 745 744 744 744 745 746 746 747 749 752 754 756 759 759 759 760 761 761 762 762 763 763 763 763 763 763 763 764 764 764 764 765 765 766 766 766 767 767 767 767 767 767 767 768 769 769 769 770 771 772 774 774 775
766 761 762 765 766 767 771 772 766 766 773 773 763 758 759 762 765 771 774 779 789 786 764 765 786 775 752 750 750 750 751 746 743 742 740 742 742 742 744 745 748 750 753 756 757 759 759 760 761 761 762 763 764 764 764 764 763 763 763 763 763 763 763 763 763 764 764 764 765 765 765 765 765 765 765 766 766 767 767 767 768 768 769 770 771 772
763 763 766 768 768 769 772 771 764 762 770 772 763 759 761 762 768 773 776 783 785 777 768 767 776 779 769 754 744 745 750 748 745 741 738 738 739 740 745 748 750 753 754 756 758 759 760 761 762 763 764 764 765 765 765 765 764 763 763 763 763 763 763 762 762 762 762 762 763 763 763 763 763 763 763 764 764 764 765 765 765 766 766 767 768 769
763 765 767 768 770 771 768 764 758 758 764 766 763 764 764 765 771 772 775 782 779 779 785 773 767 780 772 749 742 745 748 750 746 741 739 737 737 742 748 750 751 754 755 757 759 760 762 763 764 765 765 766 766 766 766 766 765 764 763 763 763 762 762 762 761 761 761 761 761 761 762 761 762 762 762 762 762 762 762 762 762 763 763 764 764 765
768 769 769 768 768 766 760 756 754 755 761 763 763 766 767 770 774 775 779 782 779 786 792 775 765 777 768 747 747 750 749 749 743 740 740 738 740 745 748 751 753 755 756 757 759 761 763 764 765 766 766 767 767 766 767 766 766 765 764 763 763 762 762 761 761 760 760 760 760 760 760 760 760 760 760 760 759 759 759 759 759 760 760 760 761 761
771 772 773 770 765 760 757 756 755 755 759 763 768 771 773 776 776 778 781 779 787 793 786 773 765 772 771 752 744 747 742 739 737 738 739 740 744 748 749 751 754 755 757 758 760 762 764 765 766 767 767 767 768 767 767 766 766 766 765 764 763 763 762 761 760 760 759 759 759 759 759 759 758 758 758 758 757 757 757 756 756 757 757 757 757 758
774 775 773 768 764 761 761 762 759 758 760 764 771 773 780 783 780 785 784 781 799 796 770 763 762 768 775 752 734 735 730 728 732 732 735 742 747 749 750 753 754 756 758 759 761 763 764 766 766 767 767 768 768 768 767 767 766 766 765 764 763 763 762 761 760 759 759 758 758 758 758 758 757 757 756 755 755 755 754 754 754 754 754 754 754 754
773 773 767 765 765 763 767 769 767 766 765 768 772 775 788 791 785 794 790 784 797 784 757 756 759 767 769 746 730 727 722 722 725 725 733 742 747 750 752 754 755 757 759 760 762 764 765 766 767 767 768 768 768 768 768 767 766 766 765 764 763 763 762 761 760 759 758 757 757 757 757 756 756 755 755 754 753 752 752 752 752 752 752 751 751 751
766 765 765 769 767 762 765 768 770 772 770 772 772 775 788 788 785 792 783 775 780 766 751 752 758 768 761 738 728 725 720 722 721 725 734 739 745 750 752 755 756 758 760 761 763 764 765 766 767 767 768 768 768 768 768 767 767 766 765 764 763 763 762 761 760 759 758 756 756 756 755 755 755 754 753 752 751 751 750 750 749 749 749 748 748 748
763 761 760 765 761 757 760 755 753 757 764 768 763 766 775 769 769 772 763 761 762 753 754 758 762 768 753 731 723 719 721 725 724 729 735 740 745 749 752 755 757 759 760 761 762 763 765 765 766 767 767 768 768 768 767 767 766 765 764 764 763 762 762 761 760 759 757 756 755 754 754 753 753 752 751 751 750 749 748 748 747 746 746 746 745 745
763 754 744 751 749 748 755 748 741 747 759 763 758 764 768 757 754 755 751 753 751 753 761 760 758 754 736 724 721 720 725 728 730 734 737 742 746 748 753 755 756 759 760 761 762 763 764 765 766 767 767 768 767 767 767 766 766 765 764 764 763 762 762 761 760 759 757 756 755 754 753 752 751 750 749 749 748 747 747 746 745 744 743 743 743 742
758 750 740 748 749 746 749 746 742 747 751 755 760 765 761 752 752 759 758 751 751 764 761 744 744 742 730 727 723 723 729 729 733 738 739 743 746 748 753 754 756 759 759 761 762 763 764 765 766 766 766 767 767 766 766 766 765 765 764 763 762 761 761 760 759 758 757 756 754 753 752 751 750 749 748 747 746 745 744 744 742 741 740 740 740 740
745 748 745 748 750 746 746 745 745 743 742 750 760 758 753 756 759 763 767 758 758 771 755 732 735 738 734 732 724 724 731 732 734 737 739 743 746 749 753 754 757 758 759 761 761 763 764 764 765 765 765 766 765 765 765 765 765 764 764 763 762 761 760 759 758 757 756 755 753 752 751 750 748 747 746 745 744 743 742 741 740 739 738 737 737 737
739 749 748 745 747 746 747 751 752 746 741 746 752 748 750 762 764 765 771 768 765 769 753 735 735 732 727 726 725 730 732 731 735 736 740 744 746 751 753 754 757 757 759 761 761 763 763 763 764 764 764 765 764 764 764 764 764 764 763 762 761 761 759 759 758 756 755 754 753 752 750 749 747 746 745 743 742 741 740 739 738 737 736 735 735 734
741 749 749 746 746 748 752 754 752 749 746 747 752 750 748 752 754 755 759 758 759 762 753 743 738 730 721 717 723 730 727 728 734 736 740 745 747 751 753 755 757 757 759 760 761 762 762 762 763 762 763 763 763 764 763 763 764 763 763 762 761 760 759 758 757 755 754 753 752 751 749 748 747 745 743 742 741 739 738 737 735 734 734 732 732 731
744 749 751 750 751 753 753 748 742 740 743 749 757 756 751 748 747 749 751 746 748 757 754 750 745 730 719 716 718 722 722 726 732 735 741 745 747 751 753 755 757 757 759 760 760 762 761 762 762 761 762 762 762 763 762 762 763 762 762 761 761 760 759 758 757 755 754 752 751 750 748 747 746 744 743 741 739 738 736 735 734 732 732 730 729 728
749 750 750 752 756 754 743 734 732 732 733 740 748 749 747 746 747 755 758 745 742 749 746 748 749 733 720 720 717 718 724 727 731 736 742 745 748 752 753 755 756 757 759 760 760 761 760 761 761 761 762 761 761 762 761 762 762 761 762 761 760 760 759 758 757 755 754 752 751 750 748 747 745 743 742 740 738 736 734 733 732 731 730 728 727 726
747 749 749 749 749 745 736 733 736 735 732 735 739 739 740 741 742 751 756 744 742 746 738 742 750 736 723 722 720 721 726 729 734 739 743 747 750 752 753 755 756 757 758 759 759 759 759 760 760 760 761 761 761 761 760 761 761 760 761 760 760 759 759 759 757 756 754 752 751 749 747 746 744 743 741 739 737 734 732 731 730 729 728 726 725 723
745 749 752 749 741 735 733 736 739 738 737 737 736 734 735 736 734 737 740 738 743 746 740 747 754 738 725 724 722 724 728 732 738 741 744 748 750 751 753 754 755 756 757 757 757 757 758 759 759 760 760 760 760 760 760 760 760 760 760 759 759 758 758 758 756 755 754 752 750 748 747 745 743 742 740 738 736 734 731 729 727 726 725 724 723 721
745 747 751 756 754 747 744 745 746 744 742 740 736 733 732 731 732 736 738 741 749 746 740 752 754 734 725 727 725 727 733 736 740 743 745 747 748 750 752 752 754 755 755 756 756 756 757 757 758 759 759 760 760 760 760 760 760 760 759 759 758 757 757 756 755 754 752 751 749 747 745 744 742 741 739 737 735 733 731 728 726 724 723 722 720 719
744 743 745 755 759 754 749 744 740 740 741 741 739 737 736 735 737 741 742 747 753 745 739 750 751 734 728 731 730 732 737 739 741 743 744 745 746 747 748 749 751 752 753 754 754 755 755 756 757 757 758 759 759 759 759 759 759 759 758 758 757 757 756 754 753 752 750 750 748 746 744 743 741 740 738 736 734 731 729 727 725 723 721 720 718 716
746 742 741 746 747 743 740 734 727 729 736 741 741 740 739 739 739 742 747 749 747 743 739 740 742 739 734 733 734 735 737 739 740 741 742 743 743 743 743 745 746 748 750 751 752 753 754 754 755 756 757 758 758 758 758 758 758 758 757 757 756 756 755 754 753 751 749 748 747 745 744 743 741 739 737 735 732 730 728 726 724 722 719 717 716 714
751 747 740 741 741 739 739 737 734 738 742 743 743 742 741 740 739 743 749 746 742 748 749 738 735 742 738 734 736 736 735 737 738 738 740 739 740 740 740 742 744 747 749 749 751 752 752 753 753 754 755 756 756 757 757 757 757 757 756 756 756 755 755 754 752 750 749 747 745 744 743 742 741 738 736 734 731 729 727 725 723 721 718 716 714 712
757 754 746 744 745 742 743 744 744 745 747 746 747 747 745 744 743 744 747 744 743 751 752 739 737 741 737 734 735 733 733 735 735 735 736 736 737 738 738 740 744 746 747 748 750 750 750 751 751 752 753 753 754 755 755 756 756 756 756 755 755 755 753 753 751 750 748 747 745 744 742 740 739 737 734 732 729 727 726 724 722 719 716 714 712 710
757 757 750 750 752 748 747 749 748 748 749 750 750 750 748 748 747 746 746 745 746 750 748 743 742 740 736 735 733 731 732 733 732 733 734 735 736 736 737 740 742 743 744 745 746 747 748 748 748 749 749 750 751 752 753 754 754 754 755 754 753 753 752 751 751 749 748 747 745 743 741 739 737 735 732 730 728 726 724 723 721 718 715 713 710 708
755 754 746 747 754 751 746 747 747 749 751 752 752 750 749 750 749 748 748 746 748 751 749 747 747 742 736 734 732 731 732 732 733 734 734 734 735 735 736 738 739 739 739 740 741 743 744 745 745 746 747 747 748 749 751 752 753 753 753 753 752 752 751 751 750 748 747 746 744 742 740 738 735 733 731 728 726 724 723 722 720 717 714 712 709 707
752 752 746 749 756 750 744 747 748 746 749 752 752 750 749 750 749 748 746 744 746 749 748 749 749 744 737 733 732 731 731 732 734 733 733 733 733 733 734 734 735 736 735 736 738 739 741 743 744 744 746 747 747 748 750 750 751 752 752 752 752 751 750 750 749 748 746 744 743 742 739 737 734 732 730 727 725 723 721 720 719 717 713 710 709 706
749 752 749 751 756 749 743 747 746 747 754 755 748 744 744 746 746 744 742 741 740 743 746 747 745 738 734 733 733 732 731 731 731 730 730 731 730 730 731 730 731 732 732 733 734 735 738 739 741 742 744 746 746 747 749 750 750 751 751 751 751 750 750 749 748 747 746 744 742 740 738 736 734 731 729 726 724 721 720 719 718 716 713 709 708 705
749 752 750 750 756 751 744 745 748 753 757 747 735 735 737 738 741 741 739 738 737 737 739 739 736 734 733 733 733 732 730 728 727 727 728 728 728 728 727 728 728 728 728 729 730 732 735 736 738 740 741 743 745 746 748 749 750 750 751 751 751 750 750 749 747 746 745 744 742 740 738 736 733 731 728 725 723 720 719 718 716 714 712 709 707 704
750 753 752 751 755 751 745 750 755 752 746 736 728 731 732 731 734 736 735 733 732 732 732 731 731 730 730 730 729 728 727 725 724 725 726 726 726 726 725 725 726 725 725 727 727 729 732 734 735 737 738 740 742 744 746 747 748 749 750 750 750 750 750 749 747 746 745 743 742 740 738 735 732 730 727 724 722 720 718 717 715 713 711 708 706 704
747 750 749 749 751 751 751 755 750 742 739 736 731 729 729 731 734 736 737 732 728 729 730 729 729 727 725 725 725 724 723 722 721 721 722 724 723 722 723 722 722 722 723 723 725 727 729 731 732 734 737 739 740 743 744 745 747 748 749 750 750 750 750 749 748 747 745 743 741 739 737 735 732 729 726 724 721 719 717 715 714 712 709 706 704 702
738 742 746 748 748 747 752 751 742 739 742 740 735 729 728 730 731 733 737 732 724 725 727 726 726 726 725 724 722 721 720 719 718 717 717 719 718 718 718 717 717 718 719 720 722 724 726 728 730 732 735 738 741 742 742 744 746 747 748 749 750 749 750 749 748 747 745 743 741 739 737 735 732 729 726 723 720 718 716 714 713 711 708 705 702 700
732 735 739 745 742 740 748 749 744 746 744 736 730 726 723 725 723 724 732 731 725 726 729 729 731 733 733 733 731 726 722 719 717 715 713 713 713 712 711 712 713 714 716 717 719 722 725 727 729 732 734 738 741 742 741 742 744 746 747 748 749 749 749 749 748 746 745 743 741 739 736 734 732 730 727 724 720 718 715 713 712 710 707 705 701 699
730 730 734 742 741 738 746 748 745 744 736 724 721 719 719 721 719 723 736 739 737 740 740 738 742 743 742 744 742 736 731 726 719 714 712 710 708 707 706 707 709 710 711 714 717 720 724 726 729 732 734 737 741 741 740 741 743 745 747 747 748 748 748 748 746 745 743 741 740 738 736 734 732 730 727 724 721 718 715 713 711 709 706 703 700 698
733 733 735 741 740 738 742 743 738 735 727 719 717 717 716 716 719 729 741 746 748 751 748 745 748 749 747 748 748 744 742 740 734 727 720 712 706 705 705 704 705 707 709 712 716 719 723 726 728 732 735 738 740 740 739 740 742 744 745 746 747 747 747 747 745 743 742 740 738 736 735 733 731 729 727 724 720 717 715 712 710 707 704 701 699 697
734 734 733 736 738 737 739 739 737 731 723 717 715 715 716 718 724 736 746 753 758 757 751 752 754 754 754 755 753 751 747 746 745 737 725 716 710 707 706 706 706 707 709 712 715 718 723 726 729 732 735 738 739 739 738 739 740 743 745 745 746 746 746 745 744 742 740 738 736 734 733 732 730 728 725 723 720 716 714 712 710 707 703 700 697 695
732 731 730 731 734 733 733 738 739 732 727 727 722 717 718 722 732 749 760 764 765 760 756 760 760 758 761 760 757 756 751 745 743 736 725 719 713 708 708 709 710 711 713 715 717 720 723 727 731 734 737 739 740 739 738 738 740 743 744 745 745 746 745 744 742 741 739 736 735 733 731 730 729 727 724 722 720 717 713 711 709 706 702 699 696 693
725 728 730 727 728 731 734 738 736 731 737 743 734 725 733 742 753 769 775 768 764 763 764 766 764 763 766 763 758 757 753 746 741 734 727 721 713 708 709 711 713 716 717 718 721 723 725 729 732 735 738 740 740 739 738 739 741 743 744 745 745 745 744 743 741 739 737 735 734 732 731 729 728 726 724 722 720 717 713 710 708 704 702 699 695 692
716 722 725 719 717 724 730 735 741 746 754 755 743 743 760 772 774 780 779 770 768 771 771 769 769 769 769 766 761 757 753 748 743 737 731 724 716 712 712 714 716 718 719 721 724 725 727 730 733 736 739 740 740 740 740 740 742 743 744 745 745 744 743 742 740 738 736 735 733 731 730 728 726 725 723 721 719 716 713 710 707 704 701 699 695 692
724 730 726 720 723 731 736 744 757 766 769 766 762 766 777 782 781 781 779 776 775 776 776 775 775 774 772 768 764 758 755 752 747 740 734 726 719 716 716 718 719 721 722 725 726 728 730 732 734 737 740 741 741 741 742 742 742 743 744 745 744 743 742 741 739 737 736 734 733 731 729 727 726 724 722 720 718 716 713 710 707 704 701 698 695 692
747 749 734 728 736 743 750 761 767 770 774 775 776 780 782 782 784 783 781 781 782 781 782 781 779 777 774 770 766 762 759 756 749 739 731 726 724 722 721 722 724 724 726 728 729 732 733 734 736 739 740 742 743 743 744 744 744 744 745 745 744 743 742 740 739 737 736 734 732 731 729 727 724 722 720 719 717 715 713 710 707 704 701 698 696 692
756 758 745 735 734 736 751 771 775 774 780 782 780 783 785 785 787 787 785 786 786 785 785 784 781 780 776 772 770 767 763 759 752 742 734 731 730 729 728 728 729 729 731 731 732 734 736 737 738 740 742 743 744 745 745 746 745 746 746 745 744 743 742 741 739 737 736 734 732 731 729 727 724 721 719 717 715 713 711 709 707 705 701 698 696 693
761 761 758 755 753 752 763 780 784 781 784 787 786 788 789 788 790 791 790 789 789 788 787 785 783 781 778 775 774 771 766 761 756 749 743 739 736 735 734 734 735 735 736 736 736 737 738 739 741 743 744 746 746 746 747 747 747 747 746 745 744 742 741 740 739 738 736 734 732 731 729 727 725 722 719 717 715 713 710 707 705 703 700 699 697 693
777 771 774 771 766 766 773 782 785 780 778 784 790 792 793 794 794 793 791 790 790 789 788 785 784 783 781 778 776 773 769 765 759 755 752 748 744 741 740 740 740 741 741 741 741 740 741 742 744 745 746 747 748 748 748 748 748 748 747 745 744 743 741 740 739 738 736 734 733 731 729 727 726 723 720 717 714 712 710 707 706 702 698 696 696 695
786 785 789 775 759 763 780 793 795 785 779 785 793 796 797 799 797 794 793 792 792 792 790 787 785 784 782 781 779 776 772 769 764 761 758 755 752 749 746 745 745 745 746 746 745 744 744 745 747 748 748 749 749 749 749 750 749 749 748 747 745 743 742 741 739 738 736 734 733 731 729 727 725 723 721 718 714 711 707 704 703 703 699 695 693 692
801 802 803 790 777 782 797 806 806 799 794 796 798 799 801 802 800 797 796 796 796 796 792 788 786 785 783 783 781 779 775 772 769 766 762 760 758 755 752 751 750 750 750 750 748 748 749 749 750 750 750 750 750 750 750 751 750 749 748 747 746 744 743 742 740 738 736 734 733 731 729 728 726 723 721 719 717 713 708 701 697 696 696 695 692 689
Wind_Speed
4 3 4 5 6 8 10 12 12 10 9 5 2 3 4 4 5 3 2 3 3 1 5 6 7 7 8 10 8 6 6 6 7 7 6 5 5 5 4 5 5 5 4 5 11 13 11 9 9 10 11 11 10 9 9 9 10 10 11 12 12 13 13 14 15 16 16 18 19 21 22 25 26 27 27 28 29 29 28 27 28 28 28 27 28 31
3 3 6 8 10 9 6 7 8 7 7 3 1 4 4 4 6 6 2 3 4 2 3 4 7 9 9 10 8 7 9 9 8 7 7 7 7 7 7 8 7 5 4 3 6 8 9 10 11 11 10 8 7 7 6 6 7 7 8 9 11 12 13 14 16 16 17 18 19 20 22 23 25 27 28 29 30 30 30 28 27 28 30 30 30 31
3 6 10 9 6 3 2 2 3 3 4 3 3 4 4 4 4 6 5 3 3 2 3 5 7 9 9 10 11 10 11 11 10 10 8 8 8 8 7 7 6 5 4 4 5 6 9 8 3 1 4 6 6 5 4 4 3 3 4 5 8 10 13 14 16 16 17 18 19 20 20 20 22 24 26 28 29 29 29 29 29 29 31 33 33 33
3 5 6 3 2 2 1 2 3 3 3 3 4 3 4 5 3 3 4 1 1 0 2 4 6 8 8 10 11 12 13 11 10 10 9 8 8 7 6 5 5 5 5 5 5 3 1 5 11 13 14 13 12 11 9 9 8 6 4 4 4 5 8 11 13 16 17 18 19 20 20 20 20 21 21 24 27 28 29 30 31 32 33 34 35 35
6 3 2 3 2 0 3 4 4 4 3 5 6 5 5 5 4 2 1 3 4 3 3 4 6 7 8 11 13 11 10 10 10 10 8 8 8 7 6 6 6 7 6 5 3 3 6 10 13 14 14 13 12 12 11 10 9 7 7 7 7 6 7 8 11 13 15 17 18 19 21 22 22 22 21 21 22 25 29 30 31 33 33 34 34 35
9 6 2 4 2 3 4 4 6 5 3 4 7 9 9 7 3 1 3 4 3 4 5 6 3 5 4 8 11 7 6 9 9 10 11 9 8 8 7 8 7 6 2 2 4 6 7 8 11 14 15 14 13 12 11 10 8 7 7 7 8 9 10 10 11 12 13 16 18 18 19 20 20 21 23 24 23 23 25 28 30 32 33 34 34 35
5 3 2 2 3 3 5 5 6 6 4 4 3 4 7 6 3 3 1 1 1 4 2 5 3 4 2 2 7 5 6 9 8 9 11 8 8 8 5 3 3 4 6 7 7 7 7 9 10 12 13 14 13 11 10 10 9 9 8 7 6 7 8 10 11 12 12 14 16 18 19 19 19 19 20 23 24 25 26 26 27 29 32 35 36 36
4 4 2 2 3 4 5 5 6 6 5 3 1 4 2 3 3 4 4 3 3 4 4 1 4 5 4 5 7 7 7 8 8 8 8 6 7 5 5 6 7 7 6 6 6 7 7 8 9 10 11 12 11 10 11 12 11 10 10 9 8 7 7 7 8 11 12 13 14 16 19 21 22 22 22 22 22 24 25 26 27 28 29 32 35 37
1 4 4 4 5 4 5 5 6 6 5 3 4 5 2 2 1 2 4 3 4 4 4 5 5 4 6 5 5 7 7 7 9 10 9 6 5 7 8 8 8 7 7 7 7 7 6 8 9 9 10 10 10 11 12 12 12 12 11 10 10 10 9 8 8 9 11 13 14 16 17 19 21 22 23 24 25 25 25 25 27 28 29 30 33 36
1 0 0 2 4 5 5 5 4 5 4 2 5 4 3 3 2 1 2 3 4 4 6 7 6 4 5 2 4 5 5 8 10 9 8 4 5 8 8 8 8 7 6 7 7 6 7 9 9 10 11 11 11 11 11 12 13 13 12 12 13 13 12 11 10 9 10 11 13 16 17 18 20 20 21 22 25 27 27 28 27 27 28 29 31 33
3 1 2 3 5 3 3 4 3 3 3 6 6 3 2 1 2 2 2 3 3 4 9 10 8 6 5 2 6 6 6 9 8 6 6 5 8 8 7 7 7 6 6 6 6 6 8 11 11 11 11 11 11 12 12 13 14 13 13 13 13 14 14 14 13 11 10 10 11 14 16 18 20 20 21 22 23 24 24 27 28 28 29 29 30 31
8 4 2 3 5 3 3 3 2 2 1 4 4 3 1 1 2 2 3 3 3 6 8 9 11 10 7 3 5 7 8 10 8 6 8 8 9 7 6 7 6 6 6 6 6 6 7 8 9 10 11 10 11 12 13 13 14 14 14 13 14 15 15 15 15 14 12 11 11 12 14 17 19 20 21 22 23 24 24 25 26 27 29 30 30 31
7 9 9 5 3 5 4 3 1 0 1 1 3 4 2 2 2 2 3 4 5 7 5 7 11 9 8 7 8 8 6 8 7 6 11 11 9 8 7 6 6 6 6 6 6 5 5 5 6 8 9 9 10 11 12 13 14 14 14 14 15 15 15 16 16 16 15 13 12 12 13 15 17 19 21 23 24 24 25 26 26 26 27 28 29 30
3 5 7 6 4 6 8 6 4 4 5 6 6 6 5 3 3 3 5 4 4 7 6 8 10 4 5 9 14 15 7 5 6 7 11 12 11 10 8 7 6 6 6 6 5 5 5 5 6 8 8 8 9 10 11 11 13 14 14 15 15 16 16 16 16 17 17 16 14 13 13 15 16 18 19 22 23 24 25 26 26 27 27 28 28 29
6 5 4 9 5 8 13 11 9 6 7 9 7 6 5 4 4 4 5 4 4 4 2 5 6 4 4 4 6 11 6 6 7 8 11 10 10 10 8 7 7 6 6 5 5 5 5 6 7 7 7 7 8 9 10 10 12 13 14 15 15 17 17 17 17 17 17 17 16 14 13 14 15 17 19 20 22 23 24 25 26 27 28 28 29 29
8 8 7 10 4 9 15 12 8 5 4 7 5 5 6 5 4 3 3 3 3 1 2 2 4 4 5 1 4 7 7 8 8 9 11 10 9 9 7 7 6 6 5 5 5 5 5 6 7 7 5 6 6 7 8 9 11 12 13 14 15 16 16 17 17 17 18 17 17 16 14 13 14 16 18 20 21 22 23 25 26 28 28 29 29 29
6 5 6 8 2 8 14 9 7 6 4 4 5 7 5 1 2 2 5 3 3 3 3 4 4 3 4 3 5 9 8 9 9 9 10 10 10 8 7 6 6 6 5 5 5 5 5 5 6 5 4 4 5 6 8 9 10 11 12 13 14 15 16 17 17 18 18 18 18 17 15 13 13 15 17 18 20 21 23 25 27 28 29 29 29 30
6 4 2 7 6 7 6 2 3 6 4 3 5 6 2 3 2 1 3 3 3 5 5 6 8 5 5 4 4 9 9 9 9 9 10 10 9 8 6 6 6 6 5 5 5 5 4 3 3 3 4 6 6 6 7 8 9 10 11 12 13 15 16 17 18 18 19 19 18 18 17 16 15 14 15 17 19 21 22 24 25 27 28 29 29 29
3 3 4 7 9 5 2 2 1 6 6 4 1 2 3 1 2 3 3 3 3 5 4 6 9 7 6 4 4 8 9 10 10 10 10 10 9 8 7 7 6 6 5 5 5 4 3 1 2 3 5 7 7 7 7 8 9 9 10 11 12 14 15 16 17 18 19 19 19 19 19 19 18 16 15 16 18 20 22 24 25 26 27 28 29 29
1 3 3 3 4 4 3 2 4 5 6 2 3 2 2 2 2 4 5 4 4 5 5 5 7 5 5 4 7 12 11 11 11 10 10 9 9 8 7 6 6 5 5 4 3 2 1 1 4 5 7 8 8 7 7 8 9 9 10 11 12 14 15 16 18 19 20 20 20 21 20 20 19 18 16 15 16 19 21 23 24 25 27 27 28 28
1 3 3 1 1 2 3 6 9 9 7 5 2 3 4 3 1 1 2 3 3 4 4 5 6 3 1 2 5 11 10 11 11 10 9 8 8 8 6 6 5 5 5 4 3 3 3 3 4 5 7 8 8 8 8 9 10 11 11 11 12 13 15 17 19 20 21 21 21 21 22 22 21 20 18 16 16 17 19 21 23 24 25 26 27 27
2 3 5 2 1 5 6 6 8 8 6 7 7 7 7 6 4 3 5 5 3 3 4 5 6 4 1 3 3 6 7 8 9 8 8 7 8 7 6 6 6 5 5 4 4 4 4 4 3 3 5 8 8 7 8 9 11 12 12 12 12 12 14 16 18 20 21 21 21 21 22 22 22 21 21 19 17 16 16 18 20 22 24 26 26 27
3 2 5 6 5 8 7 2 2 1 1 3 5 6 7 7 6 7 8 6 4 5 5 4 5 4 1 2 5 6 6 7 8 8 8 7 6 6 6 6 6 5 5 5 5 5 4 3 1 2 4 6 7 7 7 9 11 12 13 13 12 13 14 15 17 19 20 21 21 22 22 22 22 22 23 21 19 18 17 17 18 20 22 25 26 26
5 3 4 7 5 6 6 2 4 4 2 2 5 6 8 9 9 8 5 3 2 4 5 5 6 5 2 1 3 6 8 8 8 8 8 6 5 6 6 6 6 6 5 5 5 5 4 2 1 2 4 5 6 6 7 9 10 11 12 12 13 13 14 15 17 18 19 21 22 21 21 21 22 23 24 24 22 20 19 18 18 18 21 23 25 26
4 4 5 6 5 5 6 3 1 0 2 4 4 4 6 8 8 4 1 1 2 5 6 5 5 3 1 2 4 7 9 8 7 7 7 6 6 6 6 6 6 6 6 6 5 4 4 3 2 1 3 5 5 6 6 7 9 11 11 11 12 13 14 16 17 18 19 21 21 22 22 21 22 24 25 25 25 23 22 20 18 18 19 22 24 26
3 4 5 6 8 9 9 7 6 5 4 3 3 4 5 5 5 3 1 3 5 7 8 6 4 2 2 5 6 7 8 7 6 7 6 6 6 7 7 7 7 7 6 6 6 5 5 4 3 3 3 5 5 6 6 6 9 10 10 10 11 12 14 17 19 20 21 21 21 21 22 21 22 24 25 25 26 26 24 22 20 18 18 20 22 24
3 5 6 7 9 8 6 4 3 2 4 4 6 9 9 7 6 4 4 6 6 6 9 9 6 5 5 3 5 6 7 7 7 7 7 7 7 8 7 7 7 7 6 6 6 5 5 4 4 4 4 4 5 5 5 6 8 9 9 10 10 12 14 16 19 20 21 21 21 21 20 21 23 24 24 25 26 26 25 24 22 21 19 19 20 23
2 7 10 12 12 10 8 8 6 2 2 4 5 7 9 10 10 8 8 9 6 6 9 7 6 8 10 7 5 5 6 5 5 5 6 6 5 5 4 5 7 7 6 5 5 6 6 6 5 5 5 6 5 4 5 6 7 7 9 9 10 11 13 14 18 20 21 21 22 21 21 22 22 22 23 25 26 25 25 25 25 23 21 19 19 20
2 4 6 9 11 10 8 7 6 3 3 3 3 4 6 8 10 10 10 10 8 8 8 7 8 10 9 6 7 8 7 7 6 7 6 5 5 4 1 6 8 7 6 6 6 6 7 7 6 7 7 8 7 5 4 5 5 7 8 9 10 11 12 13 16 20 20 20 21 22 23 24 23 23 23 25 26 26 25 26 26 25 23 20 18 18
2 3 5 6 7 8 8 5 4 5 5 4 3 5 6 7 8 9 9 9 9 9 9 9 13 14 8 7 10 9 7 7 7 7 6 5 6 5 3 7 8 8 8 8 7 7 7 7 8 8 9 10 9 6 4 4 4 7 9 10 10 11 12 13 16 19 19 19 21 22 24 25 25 25 24 24 25 26 27 27 27 26 25 23 20 17
4 3 6 5 4 7 8 7 7 7 7 6 7 7 8 9 9 9 8 7 7 8 10 11 14 12 8 8 12 11 9 9 10 11 10 9 8 7 5 6 7 8 8 8 8 7 7 8 8 8 9 11 11 8 5 3 4 6 9 10 11 12 13 13 15 18 18 18 20 22 24 25 26 26 26 25 25 26 27 28 28 26 25 24 23 19
4 3 2 2 4 5 6 7 8 8 8 10 10 10 10 9 8 8 7 8 8 8 10 11 11 8 6 8 11 11 10 10 11 11 10 9 10 9 9 9 8 7 7 7 8 8 8 8 8 7 8 10 10 8 5 3 3 5 8 10 12 13 12 12 15 18 19 19 21 22 23 24 26 27 27 26 26 26 27 28 28 27 25 24 25 23
3 3 2 3 5 5 6 7 7 6 7 8 8 10 11 10 10 10 10 10 10 8 8 8 8 6 5 7 8 9 9 10 10 8 7 8 9 9 9 9 8 7 7 8 8 8 7 8 8 9 9 8 8 7 4 3 2 4 7 10 11 12 12 13 15 17 18 20 21 22 23 24 25 26 27 27 26 26 27 28 27 26 25 25 25 24
3 3 3 3 2 2 4 5 3 5 6 4 2 3 8 10 11 12 11 11 11 10 9 9 8 8 8 8 9 10 10 10 9 7 6 6 6 7 7 7 7 8 8 8 8 7 6 7 10 12 11 10 10 7 5 3 1 4 7 8 9 10 11 14 16 17 18 19 21 22 23 24 24 25 27 27 27 27 26 27 27 26 25 24 25 24
6 5 4 2 2 2 2 3 4 6 5 1 3 4 6 8 10 11 11 11 11 11 11 11 11 11 11 11 12 12 12 12 11 10 9 8 8 7 7 7 8 8 7 7 7 6 6 8 11 13 13 14 12 8 6 3 1 4 5 6 7 9 10 13 15 17 19 20 21 22 23 25 26 26 27 27 27 27 27 26 26 26 25 25 25 23
8 6 5 4 4 4 3 4 6 5 2 1 1 5 6 5 7 9 10 11 11 9 9 9 10 10 11 11 11 11 11 12 12 11 10 9 10 9 8 9 10 10 8 7 7 7 8 11 14 16 16 15 12 9 7 4 1 2 4 5 6 8 9 11 13 16 19 21 22 23 23 24 25 27 28 28 27 27 27 27 27 25 24 25 25 24
11 8 5 5 5 5 5 6 6 5 4 3 3 4 5 5 6 7 7 7 8 7 7 8 9 10 10 10 10 10 11 11 10 10 9 10 11 11 10 12 12 10 7 8 9 10 12 13 16 19 19 16 12 9 7 4 2 2 4 4 5 7 8 10 12 15 18 21 22 24 24 24 24 26 27 28 27 27 27 27 26 25 24 25 26 25
11 10 7 6 6 6 6 7 6 6 6 4 6 8 8 8 10 8 6 6 4 3 6 6 6 7 8 9 11 11 9 9 10 8 7 9 11 11 13 13 10 8 9 10 11 8 9 14 20 21 19 17 12 8 7 6 5 4 4 5 6 8 9 11 14 17 19 20 22 24 24 23 23 24 26 27 27 27 27 27 26 25 24 24 26 27
12 10 9 7 6 5 6 6 6 6 5 3 5 9 9 9 8 7 6 5 1 5 7 6 7 8 8 9 11 11 7 7 9 7 5 8 10 11 13 11 8 10 12 12 11 13 18 22 23 21 19 16 12 8 8 8 8 7 7 7 8 9 11 13 16 18 20 21 22 23 22 22 23 22 23 25 26 26 26 26 25 25 24 24 25 27
10 8 8 7 7 7 8 7 4 3 2 2 4 5 4 3 4 6 7 3 2 7 8 8 8 9 8 9 9 7 5 4 6 9 11 9 6 6 9 9 9 10 10 9 15 22 24 24 23 21 17 15 11 9 10 11 10 10 9 9 10 11 13 15 17 19 20 22 22 21 21 21 22 23 23 24 25 26 25 24 25 25 25 25 25 26
6 6 7 8 8 9 10 7 4 3 2 1 3 4 3 1 2 5 5 2 4 7 8 8 7 8 8 8 6 4 6 7 9 14 16 12 8 7 5 1 4 8 13 18 22 25 24 22 22 20 18 15 12 11 12 12 12 12 10 10 11 13 15 17 18 19 21 21 21 21 21 21 21 23 24 23 23 25 25 24 24 25 25 25 25 25
4 4 6 7 7 7 8 6 5 4 1 3 3 1 1 2 3 2 2 2 5 7 9 9 7 8 9 8 5 5 10 12 14 15 15 14 13 7 1 6 9 11 15 20 22 23 23 21 21 21 18 14 13 13 13 13 14 13 10 11 12 15 17 18 19 20 21 21 21 20 21 21 22 24 24 22 22 23 25 25 25 25 25 24 24 24
4 3 3 5 5 4 5 5 5 4 2 6 6 3 4 1 1 1 3 3 5 9 9 8 7 9 9 9 9 9 12 14 16 16 16 18 14 2 7 9 9 11 13 16 18 20 22 21 20 19 17 15 15 15 14 14 14 13 11 11 14 16 18 19 20 21 21 21 21 20 21 23 24 25 23 22 21 21 23 25 26 26 24 23 23 23
4 3 3 4 3 3 5 4 1 1 5 7 4 3 6 5 4 4 4 4 6 8 8 7 8 10 10 11 12 13 12 13 15 16 17 18 10 4 9 8 9 11 13 15 18 20 22 21 18 18 17 16 16 16 15 14 14 13 12 13 16 18 19 20 20 21 22 21 21 22 22 23 25 26 24 22 22 21 22 24 26 26 24 22 21 21
1 1 2 2 1 2 1 2 5 6 7 9 9 9 9 8 7 7 6 6 6 7 7 7 8 11 12 12 13 12 11 12 14 16 16 12 4 7 9 9 11 13 14 16 18 20 21 21 19 18 17 17 17 17 16 14 15 15 14 15 17 18 19 20 21 22 22 21 21 22 23 24 26 25 23 22 22 21 22 24 25 25 23 21 19 19
3 4 3 1 4 6 7 7 7 8 9 10 11 9 9 9 9 9 8 7 7 7 8 8 9 11 12 12 12 11 11 12 15 16 12 5 6 8 9 10 12 14 15 16 18 20 20 20 19 17 17 16 16 16 15 14 15 17 16 16 18 18 18 19 21 22 21 21 22 22 22 24 26 26 24 23 21 20 20 21 23 24 23 20 18 18
5 6 4 1 2 2 3 5 8 11 11 10 9 9 10 11 10 10 8 7 8 8 8 9 10 11 11 11 11 11 12 13 15 15 9 6 9 9 8 9 11 13 14 14 15 18 18 17 16 16 15 15 15 15 15 13 14 16 18 18 18 18 18 19 21 21 21 22 22 21 21 22 24 25 25 24 24 23 22 21 21 22 22 21 20 18
4 6 5 5 5 2 4 5 6 8 10 11 10 8 9 10 10 9 8 8 8 9 9 9 10 10 10 10 11 12 12 13 14 15 11 7 8 9 8 10 12 13 14 14 15 17 16 15 15 15 14 14 13 14 14 12 12 15 18 19 18 19 19 20 20 20 21 22 21 21 20 20 21 22 24 25 25 24 24 23 23 23 23 22 20 20
6 5 5 4 2 4 5 6 7 2 6 11 13 10 9 10 10 10 9 9 10 11 11 11 11 10 10 11 11 11 12 12 14 14 12 9 9 9 9 11 13 14 14 15 16 17 17 15 15 15 14 13 13 12 13 11 11 15 19 19 19 19 20 21 20 20 20 21 21 21 20 20 19 19 22 25 26 25 23 22 21 23 26 25 21 19
4 4 5 4 1 3 2 6 8 4 1 6 12 12 10 10 10 10 11 11 12 12 12 12 11 11 11 12 12 11 10 11 14 14 11 9 10 11 12 13 13 14 14 14 15 17 18 16 15 15 13 13 13 12 12 10 10 15 20 20 19 19 20 21 21 20 20 21 22 21 21 21 20 20 21 23 25 27 27 25 21 18 21 23 23 22
6 5 6 4 1 2 4 6 7 5 4 6 11 11 10 9 10 10 11 11 11 11 12 12 11 11 11 12 13 13 10 11 14 14 11 9 12 13 14 14 14 13 13 13 14 16 16 15 15 14 13 13 13 12 11 10 10 16 19 19 19 19 19 19 19 19 20 21 21 21 21 20 20 20 20 21 22 23 26 29 30 26 20 18 20 24
Wind_Direction
196 217 220 219 226 217 206 211 223 247 278 317 354 290 282 281 277 301 69 154 127 103 242 240 258 257 251 257 255 256 267 251 238 233 232 246 256 257 246 234 235 226 217 187 190 200 209 226 250 266 271 265 258 258 259 261 257 256 257 251 246 243 242 242 241 239 236 232 230 230 230 229 230 230 231 232 232 231 229 226 225 224 223 223 223 226
177 229 234 225 233 239 217 213 225 244 272 296 299 281 277 259 267 288 279 180 136 127 253 279 282 272 268 274 282 282 277 266 252 243 232 229 231 240 243 236 235 233 220 203 195 201 217 239 257 267 272 273 273 274 270 270 268 266 261 253 252 248 244 243 242 240 238 235 233 232 232 231 231 230 230 231 232 231 231 227 225 225 225 224 223 224
194 239 243 238 240 271 341 299 285 278 274 283 259 258 264 250 258 286 278 216 124 125 248 278 272 271 271 270 272 265 261 259 251 249 243 237 233 231 241 245 246 250 241 229 220 219 230 240 249 17 30 35 34 30 29 11 345 325 296 275 268 259 252 248 246 245 243 241 240 240 240 238 236 235 234 234 234 234 232 229 228 228 227 227 225 225
213 223 228 240 46 39 329 264 259 257 248 249 243 242 250 243 227 264 268 228 70 88 253 285 277 270 269 266 263 251 249 254 252 250 246 246 247 236 232 244 256 261 263 261 256 247 220 68 65 62 52 47 46 41 30 17 9 3 348 331 310 284 270 261 255 252 252 250 247 245 246 246 245 243 240 238 236 234 233 230 227 227 227 227 226 227
248 262 119 102 75 143 257 249 224 222 237 226 221 225 242 244 216 216 341 29 6 324 262 266 286 273 247 242 249 248 245 252 256 257 252 244 248 249 239 238 245 249 256 269 292 37 64 62 59 54 47 43 41 32 18 7 357 343 327 315 303 288 278 274 268 263 261 260 257 254 252 252 254 253 249 248 242 234 232 232 229 227 227 227 227 228
259 276 113 151 203 206 228 244 219 207 232 238 221 216 221 227 209 131 39 33 1 303 231 197 237 278 234 225 240 242 237 244 245 245 245 241 239 242 240 233 230 227 208 78 70 69 67 63 57 49 45 43 38 27 16 11 6 355 338 315 297 283 272 266 266 267 268 265 263 261 256 252 253 253 250 250 248 241 236 234 233 232 231 229 229 229
256 263 108 176 224 210 216 237 230 212 222 253 247 216 209 204 166 123 97 76 223 280 254 155 194 276 327 267 242 212 211 235 238 236 236 227 220 224 221 196 150 112 92 84 77 70 62 58 55 48 44 42 34 24 16 12 9 4 360 349 332 309 289 273 265 264 268 270 266 261 257 252 249 249 248 247 247 247 245 241 239 236 234 233 232 231
220 206 156 171 201 209 215 224 224 210 209 235 17 55 93 165 158 160 181 204 226 273 309 201 211 259 283 267 234 192 195 233 245 247 245 222 200 178 118 97 94 93 93 92 79 71 65 59 57 56 54 48 36 28 22 17 13 8 6 1 356 342 324 304 283 271 268 273 273 267 263 258 254 253 253 251 249 249 248 246 244 242 239 236 234 234
193 197 182 174 191 208 216 223 220 211 213 203 122 95 71 99 128 177 185 207 246 271 284 244 206 238 268 258 206 179 184 227 241 239 244 233 177 123 104 98 97 95 93 94 90 82 78 71 70 73 70 58 44 33 25 21 17 14 13 10 6 358 345 331 313 294 278 273 275 273 271 268 261 258 257 255 254 253 252 252 249 245 243 240 237 236
339 189 216 217 211 211 224 238 247 232 212 128 106 104 63 65 83 79 172 218 256 251 246 233 198 222 271 232 165 176 184 214 228 226 230 219 124 107 109 108 101 101 96 92 93 88 84 80 74 74 73 62 46 35 26 22 17 14 14 11 9 6 360 349 334 318 301 286 278 275 275 275 271 266 264 261 257 254 253 253 252 249 246 243 241 238
261 20 13 266 232 236 271 278 284 258 166 100 80 89 78 112 182 205 199 204 241 250 244 229 195 208 262 204 176 195 202 206 211 205 196 145 111 107 106 106 104 104 101 91 89 86 80 74 66 64 64 57 43 33 26 21 16 13 11 7 5 5 2 357 352 340 323 307 293 283 277 275 273 270 269 267 263 259 254 252 250 250 249 246 244 242
249 241 232 243 234 241 288 284 290 320 85 98 106 147 165 244 212 202 216 207 213 246 246 211 186 200 237 231 185 202 208 200 196 185 165 132 117 117 104 102 102 96 96 92 88 82 75 68 59 57 54 48 39 31 24 19 15 12 10 5 2 2 0 358 357 352 341 324 308 295 285 279 275 272 270 267 265 262 260 257 254 252 250 248 246 244
231 226 222 221 223 206 210 224 205 306 270 181 150 157 168 228 224 204 213 209 212 244 247 175 175 200 227 233 233 242 222 180 174 157 144 135 127 124 114 110 106 99 100 96 94 91 84 77 63 55 48 39 32 26 21 17 12 9 8 4 360 358 357 355 355 354 349 339 323 309 296 288 282 278 273 270 267 264 261 261 260 258 254 250 247 244
227 236 219 207 225 206 191 183 182 190 198 192 180 175 171 179 213 217 216 221 221 242 239 176 176 214 245 236 235 238 231 126 112 114 130 134 129 127 123 117 111 106 106 104 105 97 88 83 68 58 46 33 26 20 16 12 9 5 3 2 357 355 355 353 352 352 351 346 337 323 307 297 292 286 280 275 271 268 264 261 260 259 258 255 253 249
237 273 193 183 197 190 194 204 194 172 181 196 193 188 187 186 208 214 211 222 227 250 261 179 187 217 228 238 224 213 193 93 90 106 118 120 120 124 122 119 115 108 106 100 95 87 80 76 64 57 43 27 19 11 7 5 4 1 359 358 353 352 353 352 349 348 349 347 342 333 319 307 299 293 288 282 278 274 269 266 262 260 259 258 257 256
228 254 191 183 184 165 188 216 209 162 173 197 179 188 218 221 219 251 259 211 192 260 334 198 210 224 225 243 93 127 120 107 110 111 117 119 121 124 120 122 121 111 108 97 90 80 69 65 57 51 38 18 7 360 356 356 356 354 352 352 349 348 350 350 349 346 345 344 342 339 329 318 309 302 296 291 287 282 276 272 268 265 262 260 260 259
220 252 173 177 234 183 189 208 212 203 192 181 177 192 216 201 119 261 278 247 203 245 248 214 223 240 251 258 130 132 131 133 134 127 131 131 127 126 121 121 115 109 111 100 97 92 76 63 46 37 18 357 349 347 346 345 347 347 345 344 342 344 346 348 348 345 344 342 341 341 337 327 314 305 303 300 296 291 285 279 274 271 268 264 262 261
218 265 209 184 213 215 195 177 230 237 212 161 188 187 150 38 72 128 262 251 231 250 240 223 234 230 228 243 162 150 150 150 151 144 140 135 129 128 119 117 114 110 110 99 98 98 92 78 34 10 345 338 336 335 337 336 336 337 339 339 337 338 341 343 344 343 343 343 339 338 338 334 327 314 308 306 303 299 294 288 282 276 273 269 266 264
203 242 254 204 198 188 128 73 287 262 236 183 181 185 137 191 218 179 211 220 220 244 239 226 238 233 225 232 152 157 165 161 158 148 142 140 134 129 122 122 118 109 104 97 94 93 93 77 334 326 324 329 329 328 328 327 331 333 332 334 335 334 335 337 341 341 341 342 339 336 334 333 331 325 316 310 309 307 301 296 290 284 279 274 270 267
170 197 236 225 200 141 104 193 200 222 229 185 29 321 224 207 197 177 193 199 205 234 244 234 233 224 229 225 170 177 180 164 157 150 146 143 133 131 130 126 121 117 116 109 110 123 159 262 298 313 320 322 322 323 325 326 332 334 331 331 332 332 333 335 337 338 339 340 338 336 334 332 332 330 325 318 313 310 306 302 297 292 287 282 276 271
173 210 217 291 346 138 162 210 202 198 201 181 175 229 212 202 207 211 228 207 192 216 228 240 244 219 263 291 182 177 171 156 154 148 140 135 129 130 130 127 132 134 131 131 147 182 206 237 276 302 314 317 316 317 326 334 336 335 333 333 332 331 332 334 335 336 336 335 335 334 332 330 330 331 328 322 315 309 308 307 304 299 295 289 283 278
193 229 220 207 233 212 210 208 205 203 189 185 194 199 199 201 203 244 247 220 194 206 207 228 251 242 261 357 87 133 142 140 140 130 124 126 126 129 130 134 142 143 145 156 177 203 213 219 245 293 311 314 314 318 331 339 337 334 333 334 336 334 333 332 333 334 334 333 332 331 331 330 329 328 328 325 321 316 310 308 308 306 303 296 289 284
208 242 236 228 214 218 220 164 129 156 128 205 216 197 200 203 195 210 225 217 206 218 220 237 256 248 234 64 86 110 122 120 119 118 122 129 133 139 147 152 156 162 168 176 191 210 211 196 206 313 317 315 319 327 337 339 336 334 333 334 337 337 335 333 331 332 333 332 331 330 330 330 329 327 327 327 326 323 317 311 309 309 307 303 297 289
211 212 237 245 245 231 221 121 60 49 78 237 238 205 203 209 208 214 222 218 199 201 209 231 238 228 211 124 111 120 119 114 116 123 130 140 151 160 167 171 177 181 189 199 201 201 189 156 112 331 319 319 326 330 333 336 334 332 330 330 333 335 335 334 332 333 333 333 333 333 332 331 330 328 327 327 327 325 324 320 314 311 310 307 303 297
221 204 207 231 243 231 218 204 266 286 170 220 237 226 221 218 218 227 12 25 236 217 213 222 231 219 158 77 80 101 111 114 122 132 140 153 167 177 181 188 193 188 191 200 193 179 168 155 155 270 297 308 317 321 326 331 328 326 326 326 329 329 328 333 338 339 337 336 334 335 336 334 332 329 327 327 326 325 324 323 318 315 313 311 308 303
266 235 213 219 224 221 219 217 219 214 204 213 236 252 257 231 211 203 195 225 223 220 224 224 227 248 81 93 99 108 118 131 149 159 168 178 187 190 190 191 189 182 184 190 183 179 177 169 178 219 266 291 304 311 320 326 319 320 323 322 326 327 325 333 343 343 340 339 336 335 337 335 331 330 328 326 326 325 324 323 319 315 310 308 308 306
257 249 241 235 234 237 244 252 250 216 212 222 216 223 237 237 220 204 214 231 225 220 231 226 216 240 246 182 145 142 150 167 178 179 189 200 202 205 211 200 178 168 180 184 176 180 184 184 200 216 231 259 280 293 307 311 310 318 326 323 324 326 326 332 340 343 343 341 339 335 334 332 330 329 328 326 326 327 325 322 319 315 309 305 305 305
252 244 246 245 247 254 266 283 305 333 231 254 241 222 230 234 230 224 226 232 232 235 240 228 204 228 240 233 225 230 223 221 220 219 229 234 226 228 225 179 158 161 183 186 179 186 191 198 210 210 218 235 242 256 286 297 304 317 323 322 322 324 327 330 334 339 342 341 339 337 333 330 329 329 329 328 329 330 328 323 320 317 313 307 303 303
272 258 257 256 258 263 268 282 303 305 247 258 271 249 245 243 239 240 243 240 233 237 246 242 234 238 243 248 251 252 256 263 261 248 246 258 269 273 177 140 155 174 190 191 197 204 197 198 206 203 213 223 216 215 256 286 304 313 314 318 322 324 326 330 332 336 339 338 338 337 334 332 330 330 330 331 332 333 330 326 322 320 317 312 305 303
194 262 263 258 263 269 265 257 263 269 269 272 264 253 253 256 253 254 258 255 249 253 259 260 255 252 251 256 259 261 266 271 273 272 268 268 269 264 198 165 175 187 191 194 211 220 205 202 207 201 204 210 202 196 220 262 295 304 311 319 322 323 327 330 332 335 336 335 336 336 336 336 334 333 332 332 333 333 331 329 326 323 322 318 313 308
181 240 255 247 248 252 244 233 227 230 242 254 256 257 259 260 260 259 260 260 258 260 261 260 261 260 252 255 262 264 268 271 273 276 277 273 269 265 248 225 212 203 200 203 214 218 209 209 210 201 202 204 193 184 195 227 276 297 311 320 319 320 327 328 329 333 334 334 334 335 336 338 337 335 334 334 333 332 331 330 327 325 324 322 319 314
191 224 241 234 252 242 210 209 224 226 233 244 243 245 251 255 258 255 250 248 246 250 255 254 256 259 251 252 258 259 261 264 263 263 265 268 269 264 258 258 248 226 215 215 212 210 211 214 207 200 209 205 183 166 176 208 261 299 312 316 315 320 327 326 324 330 335 336 335 335 336 337 337 336 336 336 335 332 331 329 327 326 325 323 321 318
201 224 214 206 241 240 196 196 221 231 239 243 232 225 229 234 244 245 242 243 243 246 254 253 250 257 257 257 264 266 262 257 254 251 249 256 263 257 253 259 254 237 232 225 209 203 213 209 193 194 204 192 162 147 164 200 254 303 311 311 313 321 326 322 322 328 333 335 335 335 336 335 336 336 336 337 335 332 330 327 324 324 325 324 322 319
264 261 248 224 225 218 175 174 212 234 235 235 126 187 218 223 231 238 239 239 237 235 241 247 250 255 258 260 264 265 264 262 262 262 254 252 258 257 259 267 260 246 237 219 199 201 213 196 182 187 185 164 146 151 169 179 252 295 302 309 316 324 321 317 322 329 331 332 334 336 336 335 334 333 334 336 336 333 330 326 323 323 323 324 323 320
253 256 251 232 223 233 185 174 221 233 229 162 108 173 219 228 235 244 248 244 240 240 243 248 250 248 247 250 253 256 259 263 267 269 268 268 269 264 261 265 265 257 237 212 198 202 203 183 176 174 163 152 151 156 160 155 210 286 300 316 321 321 319 318 323 328 329 330 333 335 336 334 332 331 332 334 335 332 329 325 322 321 322 322 322 319
225 233 237 235 237 242 226 219 233 246 294 21 173 202 211 223 239 253 256 247 242 246 251 256 261 260 257 256 255 257 259 261 262 257 249 252 257 258 256 255 258 253 231 203 192 199 204 194 181 164 148 145 149 144 139 145 181 304 320 331 324 319 324 327 327 329 330 331 333 333 333 333 331 330 330 331 332 330 328 326 322 320 320 321 319 317
212 217 220 227 228 224 229 236 244 267 279 258 213 207 207 219 233 243 254 245 233 240 257 265 269 275 280 277 272 268 261 260 264 255 236 233 240 243 244 244 245 240 212 193 204 218 217 195 167 148 137 133 133 130 127 126 92 21 352 343 335 334 340 340 336 334 331 331 332 332 332 333 331 329 327 328 329 328 326 325 321 318 319 319 317 316
212 213 211 215 216 212 231 245 244 251 250 218 198 208 211 224 234 241 255 251 238 279 298 298 307 324 334 333 324 310 286 264 263 260 238 225 224 230 240 243 236 208 189 205 221 208 169 149 137 133 132 127 119 119 118 105 85 58 27 11 2 354 352 347 341 338 334 331 332 332 332 333 331 327 326 325 324 324 324 323 319 316 318 317 314 313
217 216 216 224 222 210 223 236 234 238 236 183 193 211 210 214 223 235 253 249 289 6 5 15 11 5 5 356 345 337 319 282 274 284 270 236 223 228 235 231 210 193 198 211 198 148 130 130 127 126 127 120 109 107 108 99 87 70 49 31 19 9 2 350 340 336 333 330 331 331 333 333 330 327 325 323 322 322 322 320 317 315 316 316 312 311
224 220 221 227 228 225 230 236 238 236 218 162 190 209 203 195 207 228 243 249 358 0 14 30 15 4 4 355 349 346 335 313 302 309 308 292 273 262 246 220 197 193 183 164 149 139 133 130 125 119 114 109 103 100 101 98 87 71 54 35 25 14 1 347 338 335 333 332 333 334 335 334 331 329 328 324 323 323 321 320 318 316 318 318 314 311
217 216 221 224 225 228 231 236 246 239 220 198 213 206 189 187 210 225 228 248 322 335 13 27 11 10 5 350 351 336 309 310 306 301 306 315 324 317 301 230 139 143 133 128 132 132 126 120 117 110 102 99 98 93 94 94 85 70 53 39 27 9 353 343 339 338 337 336 337 336 336 336 333 332 331 329 327 324 322 322 321 318 319 318 314 311
210 207 216 219 224 231 231 237 249 241 25 13 318 280 169 202 209 229 255 278 310 340 13 15 6 17 4 339 335 316 303 309 310 306 313 320 314 302 6 80 81 94 110 120 125 124 116 109 104 98 92 87 84 83 87 88 79 66 54 42 21 359 349 346 344 343 342 343 343 340 338 338 336 335 334 332 329 323 320 323 324 321 321 318 314 312
199 200 221 214 204 211 221 228 232 225 9 350 316 332 31 50 178 345 315 311 349 3 5 0 4 12 356 331 324 320 313 315 316 318 323 320 312 311 109 99 94 97 102 108 113 115 111 104 96 91 85 78 75 74 77 78 71 61 52 35 9 354 352 352 349 348 349 351 350 344 341 339 338 337 335 331 328 322 318 322 325 324 323 321 318 315
199 199 226 217 195 199 217 221 201 46 10 356 344 78 69 47 29 13 342 344 14 9 357 354 358 355 344 329 324 323 321 319 318 319 319 314 314 83 96 89 94 98 98 103 108 111 108 102 95 89 81 73 69 67 65 66 65 58 44 22 3 357 357 354 353 354 354 353 350 345 343 341 338 336 335 333 331 325 322 325 327 325 325 325 321 317
236 256 243 227 115 90 101 92 84 69 40 36 53 76 74 54 30 18 12 12 12 4 357 351 344 341 336 327 323 324 323 319 315 311 308 309 340 83 86 80 85 90 91 95 101 106 104 99 95 90 80 69 63 61 58 55 54 48 33 12 3 2 359 356 357 357 354 350 348 346 343 339 336 336 336 335 334 329 325 326 326 324 324 324 323 321
29 333 310 177 127 96 62 47 70 77 58 53 62 65 62 52 31 17 18 17 6 358 354 346 338 336 332 327 328 329 323 319 317 313 311 339 52 65 72 75 80 85 87 90 98 103 102 97 92 87 78 67 60 57 54 47 42 37 23 8 6 5 1 360 359 355 352 349 348 347 343 337 334 336 336 336 335 330 325 324 323 321 321 322 322 321
38 354 352 67 166 131 64 36 61 73 60 48 51 46 41 38 28 18 13 7 359 354 350 346 341 335 332 333 336 331 323 324 329 331 343 42 54 47 56 62 65 73 76 81 96 103 99 92 87 83 76 67 56 52 51 43 32 25 17 10 7 5 3 4 1 354 351 350 347 345 342 336 334 334 335 335 335 331 327 325 322 318 317 318 319 317
353 355 14 17 1 51 108 70 64 91 84 59 43 30 25 21 16 12 9 2 359 354 346 347 348 341 339 341 340 334 330 334 341 346 354 22 39 45 54 54 54 60 59 60 76 87 87 84 82 80 74 64 54 50 50 41 22 14 13 12 9 5 3 4 1 355 352 351 347 343 341 338 334 333 333 333 333 331 327 325 322 318 314 313 313 311
301 328 342 338 10 115 116 37 13 84 107 60 37 23 20 15 4 2 4 2 0 355 347 349 353 350 347 345 343 341 340 340 345 352 357 8 22 36 47 49 52 55 51 51 62 71 74 75 73 72 68 58 51 50 48 39 16 7 11 13 10 7 5 1 357 355 354 351 347 344 342 339 336 333 332 331 330 328 324 321 319 316 312 314 315 311
332 354 340 315 167 128 82 11 360 324 262 21 13 9 14 15 3 0 3 1 357 351 345 347 351 352 352 352 350 349 349 344 343 350 1 11 15 23 33 39 44 46 47 51 59 64 66 66 64 65 62 52 47 48 47 39 15 4 10 13 11 9 6 359 353 353 353 351 348 345 342 338 336 335 333 331 330 329 326 324 323 316 308 311 318 320
16 13 356 345 359 38 25 7 351 331 310 335 347 357 13 16 4 0 1 357 350 342 341 347 352 350 349 352 354 354 354 347 343 349 2 11 11 18 27 32 36 37 36 42 53 60 63 61 56 54 50 42 40 43 45 41 19 5 8 12 12 9 5 358 352 349 347 347 347 344 339 336 334 334 333 331 330 329 328 328 329 327 320 314 317 321